TimeCDT,TemperatureF,Dew PointF,Humidity,Sea Level PressureIn,VisibilityMPH,Wind Direction,Wind SpeedMPH,Gust SpeedMPH,PrecipitationIn,Events,Conditions,WindDirDegrees,DateUTC
12:15 AM,72.7,69.4,90,29.97,7.0,Calm,Calm,-,N/A,,Clear,0,2013-07-28 05:15:00
12:35 AM,73.0,69.8,90,29.97,7.0,Calm,Calm,-,N/A,,Clear,0,2013-07-28 05:35:00
12:55 AM,72.7,69.4,90,29.97,5.0,Calm,Calm,-,N/A,,Clear,0,2013-07-28 05:55:00
1:15 AM,73.0,69.8,90,29.97,7.0,Calm,Calm,-,N/A,,Clear,0,2013-07-28 06:15:00
1:35 AM,73.0,69.8,90,29.97,5.0,Calm,Calm,-,N/A,,Clear,0,2013-07-28 06:35:00
1:55 AM,71.8,68.5,89,29.97,7.0,Calm,Calm,-,N/A,,Clear,0,2013-07-28 06:55:00
2:15 AM,70.7,67.3,89,29.96,5.0,Calm,Calm,-,N/A,,Clear,0,2013-07-28 07:15:00
2:35 AM,70.7,67.3,89,29.96,10.0,Calm,Calm,-,N/A,,Clear,0,2013-07-28 07:35:00
2:55 AM,70.7,67.3,89,29.96,5.0,Calm,Calm,-,N/A,,Clear,0,2013-07-28 07:55:00
3:15 AM,70.7,67.3,89,29.96,7.0,Calm,Calm,-,N/A,,Clear,0,2013-07-28 08:15:00
3:35 AM,70.7,67.5,89,29.96,2.0,Calm,Calm,-,N/A,,Clear,0,2013-07-28 08:35:00
3:55 AM,70.7,67.5,89,29.97,3.0,Calm,Calm,-,N/A,,Scattered Clouds,0,2013-07-28 08:55:00
4:15 AM,70.7,67.5,89,29.97,7.0,Calm,Calm,-,N/A,,Clear,0,2013-07-28 09:15:00
4:35 AM,70.7,67.5,89,29.97,5.0,Calm,Calm,-,N/A,,Clear,0,2013-07-28 09:35:00
4:55 AM,70.7,67.5,89,29.97,7.0,Calm,Calm,-,N/A,,Scattered Clouds,0,2013-07-28 09:55:00
5:15 AM,70.7,67.3,89,29.97,5.0,Calm,Calm,-,N/A,,Scattered Clouds,0,2013-07-28 10:15:00
5:35 AM,70.7,67.5,89,29.98,7.0,Calm,Calm,-,N/A,,Clear,0,2013-07-28 10:35:00
5:55 AM,70.7,67.3,89,29.99,4.0,Calm,Calm,-,N/A,,Clear,0,2013-07-28 10:55:00
6:15 AM,70.7,67.5,89,30.00,5.0,Calm,Calm,-,N/A,,Mostly Cloudy,0,2013-07-28 11:15:00
6:35 AM,70.7,67.5,89,30.00,4.0,Calm,Calm,-,N/A,,Scattered Clouds,0,2013-07-28 11:35:00
6:55 AM,70.7,67.5,89,30.01,5.0,Calm,Calm,-,N/A,,Scattered Clouds,0,2013-07-28 11:55:00
7:15 AM,72.1,68.9,89,30.00,10.0,Calm,Calm,-,N/A,,Clear,0,2013-07-28 12:15:00
7:35 AM,75.6,71.6,87,30.01,10.0,Calm,Calm,-,N/A,,Clear,0,2013-07-28 12:35:00
7:55 AM,75.6,71.6,87,30.00,10.0,Calm,Calm,-,N/A,,Clear,0,2013-07-28 12:55:00
8:15 AM,75.9,70.9,84,30.01,10.0,Calm,Calm,-,N/A,,Clear,0,2013-07-28 13:15:00
8:35 AM,78.1,72.5,83,30.01,10.0,Calm,Calm,-,N/A,,Clear,0,2013-07-28 13:35:00
8:55 AM,78.1,71.8,81,30.01,10.0,Calm,Calm,-,N/A,,Clear,0,2013-07-28 13:55:00
9:15 AM,80.6,71.8,74,30.01,10.0,Calm,Calm,-,0.01,,Clear,0,2013-07-28 14:15:00
9:35 AM,80.6,71.2,73,30.01,10.0,Calm,Calm,-,0.01,,Clear,0,2013-07-28 14:35:00
9:55 AM,82.4,71.6,70,30.01,10.0,Calm,Calm,-,0.01,,Scattered Clouds,0,2013-07-28 14:55:00
10:15 AM,83.1,71.1,67,30.01,10.0,Calm,Calm,-,N/A,,Scattered Clouds,0,2013-07-28 15:15:00
10:35 AM,83.3,71.1,66,30.03,10.0,Calm,Calm,-,N/A,,Scattered Clouds,0,2013-07-28 15:35:00
10:55 AM,84.6,71.4,65,30.02,10.0,ESE,3.5,-,N/A,,Scattered Clouds,110,2013-07-28 15:55:00
11:15 AM,85.1,70.3,61,30.03,10.0,Calm,Calm,-,N/A,,Scattered Clouds,0,2013-07-28 16:15:00
11:35 AM,85.3,70.9,62,30.02,10.0,East,3.5,-,N/A,,Mostly Cloudy,100,2013-07-28 16:35:00
11:55 AM,84.7,70.0,61,30.02,10.0,Calm,Calm,-,N/A,,Mostly Cloudy,0,2013-07-28 16:55:00
12:15 PM,85.6,70.7,61,30.02,10.0,NNW,3.5,-,N/A,,Overcast,340,2013-07-28 17:15:00
12:35 PM,85.1,69.8,60,30.02,10.0,Calm,Calm,-,N/A,,Overcast,0,2013-07-28 17:35:00
12:55 PM,86.7,71.8,61,30.01,10.0,Calm,Calm,-,N/A,,Mostly Cloudy,0,2013-07-28 17:55:00
1:15 PM,90.7,73.2,56,30.01,10.0,Calm,Calm,-,N/A,,Scattered Clouds,0,2013-07-28 18:15:00
1:35 PM,89.1,72.7,58,30.01,10.0,Calm,Calm,-,N/A,,Scattered Clouds,0,2013-07-28 18:35:00
1:55 PM,90.7,73.0,56,30.01,10.0,Calm,Calm,-,N/A,,Clear,0,2013-07-28 18:55:00
2:15 PM,90.7,72.7,55,30.00,10.0,Calm,Calm,-,N/A,,Scattered Clouds,0,2013-07-28 19:15:00
2:35 PM,90.7,71.8,54,30.00,10.0,Calm,Calm,-,N/A,,Scattered Clouds,0,2013-07-28 19:35:00
2:55 PM,90.7,71.1,52,29.99,10.0,Calm,Calm,-,N/A,,Scattered Clouds,0,2013-07-28 19:55:00
3:15 PM,90.7,72.1,54,29.99,10.0,North,3.5,-,N/A,,Clear,360,2013-07-28 20:15:00
3:35 PM,90.7,70.3,51,29.98,10.0,Calm,Calm,-,N/A,,Clear,0,2013-07-28 20:35:00
3:55 PM,90.7,72.0,54,29.99,10.0,Calm,Calm,-,N/A,,Scattered Clouds,0,2013-07-28 20:55:00
4:15 PM,90.7,70.2,51,29.98,10.0,Calm,Calm,-,N/A,,Clear,0,2013-07-28 21:15:00
4:35 PM,90.7,70.2,51,29.99,10.0,Calm,Calm,-,N/A,,Clear,0,2013-07-28 21:35:00
4:55 PM,90.7,68.7,48,29.98,10.0,Calm,Calm,-,0.01,,Clear,0,2013-07-28 21:55:00
5:15 PM,90.7,68.7,48,29.99,10.0,Calm,Calm,-,N/A,,Clear,0,2013-07-28 22:15:00
5:35 PM,90.7,75.9,62,29.98,10.0,Calm,Calm,-,N/A,,Clear,0,2013-07-28 22:35:00
5:55 PM,90.7,71.6,53,29.99,10.0,Calm,Calm,-,N/A,,Clear,0,2013-07-28 22:55:00
6:15 PM,90.7,70.2,51,29.99,10.0,Calm,Calm,-,N/A,,Clear,0,2013-07-28 23:15:00
6:35 PM,90.7,71.8,54,30.00,10.0,Calm,Calm,-,N/A,,Clear,0,2013-07-28 23:35:00
6:55 PM,87.1,74.8,67,30.00,10.0,Calm,Calm,-,N/A,,Clear,0,2013-07-28 23:55:00
7:15 PM,82.6,75.2,78,30.01,10.0,Calm,Calm,-,N/A,,Clear,0,2013-07-29 00:15:00
7:35 PM,81.7,75.0,80,30.01,10.0,Calm,Calm,-,N/A,,Clear,0,2013-07-29 00:35:00
7:55 PM,80.6,73.6,79,30.02,10.0,Calm,Calm,-,N/A,,Clear,0,2013-07-29 00:55:00
8:15 PM,80.6,75.6,85,30.02,10.0,Calm,Calm,-,N/A,,Clear,0,2013-07-29 01:15:00
8:35 PM,79.9,75.2,86,30.02,10.0,Calm,Calm,-,N/A,,Clear,0,2013-07-29 01:35:00
8:55 PM,78.1,73.6,86,30.03,10.0,Calm,Calm,-,N/A,,Clear,0,2013-07-29 01:55:00
9:15 PM,78.1,73.9,87,30.04,10.0,Calm,Calm,-,N/A,,Clear,0,2013-07-29 02:15:00
9:35 PM,78.1,74.3,88,30.05,7.0,Calm,Calm,-,N/A,,Clear,0,2013-07-29 02:35:00
9:55 PM,78.1,74.3,88,30.06,10.0,Calm,Calm,-,N/A,,Clear,0,2013-07-29 02:55:00
10:15 PM,78.1,74.1,88,30.06,10.0,Calm,Calm,-,N/A,,Scattered Clouds,0,2013-07-29 03:15:00
10:35 PM,78.1,74.3,88,30.06,10.0,Calm,Calm,-,N/A,,Clear,0,2013-07-29 03:35:00
10:55 PM,78.1,74.3,88,30.06,10.0,Calm,Calm,-,N/A,,Clear,0,2013-07-29 03:55:00
11:15 PM,75.6,71.8,88,30.06,10.0,Calm,Calm,-,N/A,,Scattered Clouds,0,2013-07-29 04:15:00
11:35 PM,77.0,73.2,88,30.06,10.0,Calm,Calm,-,N/A,,Clear,0,2013-07-29 04:35:00
11:55 PM,75.6,71.8,88,30.05,10.0,Calm,Calm,-,N/A,,Clear,0,2013-07-29 04:55:00